CAPE
662 1028 1592 953 728 652 511 902 1754 1857 1915 1693 1240 1203 1255 1163 1265 777 172 136 387 531 704 537 659 537 509 576 490 433 137 98 105 104 158 246 355 298 288 376 498 200 240
747 1114 1591 1283 755 573 687 798 1338 1705 1653 1686 1391 1156 1036 1173 1150 642 197 77 364 545 766 736 620 484 458 309 227 191 67 2 0 40 0 9 134 72 69 101 370 110 263
905 1167 1190 1465 1245 1101 835 652 928 1569 1367 1339 1607 1229 1294 1192 1020 656 333 377 814 793 752 545 418 72 30 10 99 37 0 0 0 27 0 0 0 5 1 0 36 6 72
1010 1166 1127 1516 1380 1089 887 451 597 891 1500 1309 1183 1660 1697 1228 918 815 261 670 1008 795 476 321 60 17 7 4 39 0 0 0 0 0 0 0 0 0 0 6 9 5 10
1011 1089 1180 1506 1479 1148 776 553 392 332 1081 1546 1377 1339 1439 1266 862 565 633 1066 895 614 318 28 21 13 7 0 0 0 0 0 0 0 0 0 0 1 0 0 0 0 0
853 966 1396 1527 1523 1245 1208 924 664 357 530 1239 1358 1082 1449 1060 961 881 782 898 604 252 73 0 8 5 0 0 0 0 0 0 0 0 0 0 0 0 0 0 0 0 0
915 1039 1237 1690 1592 1376 1240 1021 941 766 790 934 1124 961 1147 1035 855 853 592 586 297 343 214 28 12 0 0 0 0 0 0 0 0 0 0 0 0 0 0 1 0 0 0
1140 1119 1169 1408 1398 1431 1170 1019 871 829 1274 1155 1172 1000 981 967 767 614 482 111 10 14 69 83 20 0 0 0 0 0 0 0 0 0 0 0 2 0 0 0 0 0 0
1090 1132 1000 1058 1092 1172 1137 827 552 511 837 1169 854 735 616 572 584 280 103 7 54 231 537 479 65 0 0 0 0 0 0 0 0 0 0 0 1 0 0 0 0 0 0
861 867 753 812 630 542 900 646 377 193 387 527 649 387 174 148 147 7 47 29 8 668 529 407 150 21 0 0 0 0 0 0 0 0 0 0 0 0 0 0 0 0 0
673 737 559 480 367 249 363 427 287 167 225 212 338 234 113 64 3 0 14 22 105 188 223 235 185 115 21 0 0 0 0 0 0 0 0 0 0 0 0 0 0 0 0
143 462 414 199 143 164 156 225 137 123 193 298 308 205 112 32 1 0 17 12 31 85 77 74 42 17 0 0 0 0 0 0 0 0 0 24 0 0 0 0 0 0 0
428 135 128 194 159 153 119 53 27 38 80 299 359 152 132 76 37 2 20 16 9 11 0 7 6 0 0 0 0 0 0 0 0 0 0 0 0 0 0 0 0 0 0
227 210 162 168 169 152 117 28 29 24 13 73 321 235 118 76 29 1 16 20 8 7 0 0 0 0 0 0 0 0 0 0 0 0 0 0 0 0 0 0 0 6 22
177 177 142 97 133 72 0 15 38 27 44 24 183 198 75 106 45 0 2 7 2 1 0 0 0 0 0 0 0 0 0 0 0 0 0 0 0 0 0 0 0 0 0
120 154 95 95 66 102 24 0 0 1 9 55 121 203 143 73 33 20 1 1 0 0 0 0 0 0 0 0 0 0 0 0 0 0 0 0 0 0 0 0 0 2 12
86 104 77 59 78 98 60 0 0 12 98 76 67 178 178 79 82 47 0 0 0 0 0 0 0 0 0 0 0 0 0 0 0 0 0 0 0 0 0 3 16 28 44
100 93 125 156 74 76 72 38 1 14 102 136 133 89 120 104 52 46 9 0 0 0 0 0 0 0 0 0 0 0 0 0 0 0 0 0 2 1 2 2 94 136 115
213 140 182 162 110 81 75 30 88 15 96 124 97 83 113 88 46 16 25 0 5 4 0 0 0 0 0 0 0 16 0 0 16 26 20 9 11 3 0 0 0 0 10
251 157 179 181 137 89 60 63 89 99 109 153 107 78 24 30 82 41 29 18 7 0 0 0 0 0 0 0 0 26 9 0 11 20 22 11 8 8 0 0 0 0 0
269 190 109 136 164 140 71 66 66 78 74 86 121 88 93 91 51 17 34 14 28 57 77 77 32 13 20 17 20 14 3 6 22 17 44 46 4 3 1 0 0 0 0
286 240 228 185 149 171 136 79 22 67 9 59 123 96 139 110 192 245 219 196 179 177 172 153 78 54 50 42 26 24 8 18 15 16 33 32 7 9 0 0 0 0 0
292 250 249 230 161 154 110 94 26 17 11 27 53 67 107 199 134 210 275 300 203 137 207 232 194 120 133 102 79 54 73 58 44 55 36 56 5 6 0 0 0 0 0
191 167 172 219 226 195 146 86 44 29 0 38 68 40 72 113 118 129 133 238 299 235 253 284 293 249 216 139 115 116 73 38 39 40 40 52 41 3 0 0 0 0 0
254 140 114 59 198 191 147 102 49 10 12 45 61 54 63 67 122 154 129 91 137 161 201 203 267 230 160 141 108 85 74 74 79 37 40 17 0 0 0 0 0 0 0
189 73 34 56 34 128 102 59 24 63 39 51 28 64 19 48 48 51 94 101 188 182 154 155 191 143 125 107 88 79 41 0 6 45 19 32 3 1 1 0 0 0 0
CIN
-228 -170 -9 -58 -116 -107 -119 -23 -0 -0 -0 -0 -0 -0 -0 -3 -0 -22 -168 -175 -68 -30 -8 -44 -30 -49 -57 -45 -69 -87 -186 -188 -184 -192 -154 -120 -84 -94 -89 -59 -33 -103 -85
-211 -151 -33 -8 -87 -101 -56 -27 -0 -0 -0 -0 -0 -1 -5 -0 -0 -41 -147 -203 -76 -35 -7 -13 -35 -53 -60 -99 -128 -156 -235 -27 -0 -248 -0 -18 -143 -187 -170 -133 -51 -134 -76
-146 -87 -83 -9 -11 -13 -24 -44 -9 -0 -1 -0 -0 -0 -0 -0 -5 -41 -98 -84 -16 -10 -18 -46 -61 -202 -213 -16 -219 -253 -0 -0 -0 -151 -0 -0 -0 -0 -0 -0 -118 -0 -137
-144 -92 -69 -6 -1 -14 -16 -62 -30 -3 -0 -0 -0 -0 -0 -0 -12 -23 -120 -42 -0 -2 -49 -78 -200 -109 -0 -0 -305 -0 -0 -0 -0 -0 -0 -0 -0 -0 -0 -0 -0 -0 -0
-125 -107 -77 -0 -0 -2 -17 -39 -44 -38 -0 -0 -0 -0 -0 -0 -10 -42 -38 -1 -0 -16 -61 -67 -71 -63 -0 -0 -0 -0 -0 -0 -0 -0 -0 -0 -0 -0 -0 -0 -0 -0 -0
-146 -99 -34 -2 -0 -0 -0 -1 -10 -24 -6 -0 -0 -0 -0 -0 -3 -8 -14 -3 -20 -74 -160 -0 -0 -0 -0 -0 -0 -0 -0 -0 -0 -0 -0 -0 -0 -0 -0 -0 -0 -0 -0
-57 -54 -23 -0 -0 -0 -0 -0 -0 -0 -0 -0 -0 -0 -0 -0 -11 -10 -31 -29 -78 -61 -97 -49 -0 -0 -0 -0 -0 -0 -0 -0 -0 -0 -0 -0 -0 -0 -0 -0 -0 -0 -0
-55 -51 -16 -3 -2 -0 -0 -0 -0 -0 -0 -0 -0 -0 -1 -0 -17 -38 -36 -127 -0 -1 -224 -184 -23 -0 -0 -0 -0 -0 -0 -0 -0 -0 -0 -0 -0 -0 -0 -0 -0 -0 -0
-42 -24 -26 -6 -6 -2 -0 -1 -4 -3 -1 -1 -5 -8 -7 -9 -29 -71 -114 -0 -56 -96 -16 -28 -42 -0 -0 -0 -0 -0 -0 -0 -0 -0 -0 -0 -0 -0 -0 -0 -0 -0 -0
-35 -38 -41 -10 -16 -34 -1 -5 -14 -22 -7 -12 -12 -19 -21 -80 -117 -1 -27 -3 -0 -7 -10 -28 -131 -57 -2 -0 -0 -0 -0 -0 -0 -0 -0 -0 -0 -0 -0 -0 -0 -0 -0
-31 -21 -45 -46 -75 -119 -83 -16 -5 -26 -12 -12 -14 -9 -29 -121 -2 -0 -18 -20 -90 -108 -90 -63 -92 -17 -95 -0 -0 -0 -0 -0 -0 -0 -0 -0 -0 -0 -0 -0 -0 -0 -0
-87 -28 -27 -69 -116 -150 -115 -112 -7 -0 -19 -7 -15 -2 -35 -2 -28 -0 -17 -36 -11 -81 -22 -28 -64 -100 -0 -0 -0 -0 -0 -0 -0 -0 -0 -33 -0 -0 -0 -0 -0 -0 -0
-87 -121 -120 -67 -50 -86 -102 -147 -51 -0 -9 -0 -0 -8 -17 -72 -1 -33 -76 -26 -18 -9 -0 -7 -9 -0 -0 -0 -0 -0 -0 -0 -0 -0 -0 -0 -0 -0 -0 -0 -0 -0 -0
-58 -75 -114 -89 -72 -43 -47 -71 -70 -5 -0 -6 -0 -3 -3 -4 -1 -26 -96 -105 -22 -6 -0 -0 -0 -0 -0 -0 -0 -0 -0 -0 -0 -0 -0 -0 -0 -0 -0 -0 -0 -2 -8
-67 -43 -72 -59 -68 -72 -4 -123 -46 -140 -21 -0 -7 -0 -3 -10 -4 -0 -4 -74 -0 -3 -0 -0 -0 -0 -0 -0 -0 -0 -0 -0 -0 -0 -0 -0 -0 -0 -0 -0 -0 -0 -0
-97 -79 -55 -62 -25 -59 -50 -0 -0 -70 -49 -0 -6 -4 -4 -5 -17 -71 -20 -55 -0 -0 -0 -0 -0 -0 -0 -0 -0 -0 -0 -0 -0 -0 -0 -0 -0 -0 -0 -0 -0 -4 -12
-182 -126 -74 -128 -153 -141 -133 -0 -0 -1 -0 -8 -2 -6 -4 -6 -2 -14 -4 -0 -0 -0 -0 -0 -0 -0 -0 -0 -0 -0 -0 -0 -0 -0 -0 -0 -0 -0 -0 -43 -25 -28 -15
-114 -150 -119 -112 -157 -149 -93 -57 -8 -65 -9 -32 -60 -2 -5 -6 -10 -24 -77 -0 -0 -0 -0 -0 -0 -0 -0 -0 -0 -0 -0 -0 -0 -0 -0 -0 -1 -1 -5 -60 -40 -18 -11
-41 -101 -140 -139 -135 -96 -162 -121 -19 -77 -30 -17 -98 -133 -1 -5 -1 -19 -47 -0 -35 -44 -0 -0 -0 -0 -0 -0 -0 -103 -0 -0 -67 -24 -19 -17 -35 -5 -2 -0 -0 -0 -38
-34 -60 -98 -106 -104 -117 -102 -120 -45 -21 -20 -49 -54 -57 -71 -4 -5 -7 -34 -63 -19 -0 -0 -0 -0 -0 -0 -0 -0 -97 -99 -0 -53 -28 -7 -6 -2 -18 -0 -0 -0 -0 -0
-41 -81 -69 -81 -114 -114 -106 -112 -49 -6 -14 -25 -53 -58 -32 -42 -13 -86 -81 -123 -103 -64 -71 -71 -108 -142 -137 -122 -96 -105 -56 -91 -23 -36 -5 -0 -0 -0 -0 -0 -0 -0 -0
-61 -71 -68 -53 -64 -101 -75 -61 -44 -11 -15 -41 -29 -38 -29 -21 -13 -35 -2 -1 -3 -9 -20 -31 -70 -96 -102 -83 -88 -68 -108 -96 -75 -12 -9 -9 -8 -14 -0 -0 -0 -0 -0
-54 -62 -76 -75 -79 -83 -90 -72 -20 -48 -35 -15 -18 -10 -23 -23 -24 -26 -12 -8 -4 -25 -20 -9 -25 -50 -55 -63 -53 -20 -3 -17 -15 -7 -7 -1 -2 -9 -0 -0 -0 -0 -0
-43 -29 -42 -37 -62 -63 -79 -18 -42 -9 -0 -27 -39 -4 -26 -17 -25 -20 -15 -16 -4 -37 -13 -16 -6 -19 -45 -67 -4 -11 -17 -5 -19 -2 -2 -0 -0 -0 -0 -0 -0 -0 -0
-6 -38 -19 -72 -13 -16 -62 -44 -38 -25 -0 -3 -1 -2 -25 -57 -39 -55 -70 -36 -44 -44 -54 -44 -59 -46 -47 -34 -10 -18 -19 -31 -32 -0 -0 -1 -0 -0 -0 -0 -0 -0 -0
-16 -23 -33 -29 -13 -0 -5 -38 -0 -0 -0 -0 -8 -3 -0 -7 -1 -32 -29 -45 -54 -51 -56 -54 -63 -56 -130 -140 -68 -53 -64 -6 -49 -44 -5 -0 -0 -0 -0 -0 -0 -0 -0
Wind_Speed
38 39 40 35 37 33 31 30 28 25 23 24 26 26 24 23 23 24 24 25 22 20 19 20 19 20 20 22 20 21 20 nan 20 21 20 18 18 20 18 16 12 9 14
42 38 46 40 39 37 32 31 30 27 24 25 26 27 26 25 25 24 23 nan 22 22 23 24 25 22 22 22 20 20 nan nan nan nan nan nan 16 nan nan 16 13 12 16
34 38 43 48 42 39 36 33 32 30 26 25 26 27 27 27 26 25 24 22 23 27 27 27 26 nan nan nan nan nan nan nan nan nan nan nan nan nan nan nan nan nan nan
32 33 40 47 47 41 39 37 33 30 29 27 26 27 27 28 27 27 24 22 26 28 27 27 nan nan nan nan nan nan nan nan nan nan nan nan nan nan nan nan nan nan nan
32 34 39 43 49 45 40 38 35 30 28 29 26 28 29 30 27 29 23 22 28 29 28 nan nan nan nan nan nan nan nan nan nan nan nan nan nan nan nan nan nan nan nan
36 36 39 47 47 47 43 39 37 33 28 28 28 27 29 30 29 29 25 26 30 30 nan nan nan nan nan nan nan nan nan nan nan nan nan nan nan nan nan nan nan nan nan
35 37 36 46 50 49 44 42 39 35 32 29 28 28 30 30 33 31 26 26 30 31 30 nan nan nan nan nan nan nan nan nan nan nan nan nan nan nan nan nan nan nan nan
45 39 38 46 49 53 46 42 42 41 36 32 29 27 31 33 36 33 25 27 nan nan nan nan nan nan nan nan nan nan nan nan nan nan nan nan nan nan nan nan nan nan nan
44 44 40 41 50 56 52 48 46 45 39 36 31 30 34 39 37 33 29 nan nan 28 24 27 nan nan nan nan nan nan nan nan nan nan nan nan nan nan nan nan nan nan nan
39 41 41 41 58 58 53 51 48 47 42 40 35 36 38 41 38 nan nan nan nan 28 32 30 26 nan nan nan nan nan nan nan nan nan nan nan nan nan nan nan nan nan nan
35 35 38 42 49 64 63 56 54 50 51 47 43 45 43 nan nan nan nan nan 30 33 33 30 28 26 nan nan nan nan nan nan nan nan nan nan nan nan nan nan nan nan nan
32 29 29 37 42 55 63 66 57 53 53 51 46 46 44 nan nan nan nan nan nan nan nan nan nan nan nan nan nan nan nan nan nan nan nan nan nan nan nan nan nan nan nan
34 35 31 28 30 51 59 nan nan nan nan 53 49 46 46 nan nan nan nan nan nan nan nan nan nan nan nan nan nan nan nan nan nan nan nan nan nan nan nan nan nan nan nan
36 42 40 39 42 47 62 nan nan nan nan nan 49 48 45 nan nan nan nan nan nan nan nan nan nan nan nan nan nan nan nan nan nan nan nan nan nan nan nan nan nan nan nan
36 37 37 nan 38 nan nan nan nan nan nan nan 52 49 nan 46 nan nan nan nan nan nan nan nan nan nan nan nan nan nan nan nan nan nan nan nan nan nan nan nan nan nan nan
32 36 nan nan nan 47 nan nan nan nan nan nan 54 50 51 nan nan nan nan nan nan nan nan nan nan nan nan nan nan nan nan nan nan nan nan nan nan nan nan nan nan nan nan
nan 36 nan nan nan nan nan nan nan nan nan nan nan 59 61 nan nan nan nan nan nan nan nan nan nan nan nan nan nan nan nan nan nan nan nan nan nan nan nan nan nan nan nan
38 nan 36 43 nan nan nan nan nan nan 27 27 34 nan 59 52 nan nan nan nan nan nan nan nan nan nan nan nan nan nan nan nan nan nan nan nan nan nan nan nan nan 29 29
46 45 40 44 36 nan nan nan nan nan nan 22 nan nan 55 nan nan nan nan nan nan nan nan nan nan nan nan nan nan nan nan nan nan nan nan nan nan nan nan nan nan nan nan
48 51 53 47 41 nan nan nan nan nan 43 24 20 nan nan nan nan nan nan nan nan nan nan nan nan nan nan nan nan nan nan nan nan nan nan nan nan nan nan nan nan nan nan
47 46 46 51 40 43 nan nan nan nan nan nan 22 nan nan nan nan nan nan nan nan nan nan nan nan nan nan nan nan nan nan nan nan nan nan nan nan nan nan nan nan nan nan
42 44 45 46 40 37 25 nan nan nan nan nan 40 nan 27 26 34 47 54 56 56 55 52 54 nan nan nan nan nan nan nan nan nan nan nan nan nan nan nan nan nan nan nan
42 40 44 39 45 30 26 nan nan nan nan nan nan nan 25 18 36 29 34 48 59 60 59 60 59 52 51 51 nan nan nan nan nan nan nan nan nan nan nan nan nan nan nan
43 45 46 40 56 37 26 nan nan nan nan nan nan nan nan 25 35 44 38 31 48 59 61 64 67 50 53 41 48 47 nan nan nan nan nan nan nan nan nan nan nan nan nan
44 43 43 nan 59 35 38 25 nan nan nan nan nan nan nan nan 28 39 40 nan 29 37 37 32 54 48 33 35 33 nan nan nan nan nan nan nan nan nan nan nan nan nan nan
33 nan nan nan nan 41 27 nan nan nan nan nan nan nan nan nan nan nan nan 48 56 46 47 31 31 33 38 42 nan nan nan nan nan nan nan nan nan nan nan nan nan nan nan
Wind_Direction
254 261 262 259 263 265 271 270 268 274 277 280 283 287 291 289 290 290 291 292 293 297 301 298 292 292 285 277 274 279 275 nan 265 253 245 247 256 266 268 262 280 302 306
263 260 265 258 257 260 261 264 260 263 269 273 278 285 290 292 291 290 293 nan 293 291 287 295 288 287 280 282 278 280 nan nan nan nan nan nan 251 nan nan 261 267 281 279
282 258 260 260 253 254 257 258 261 261 267 267 271 280 286 290 292 290 292 291 290 287 283 284 281 nan nan nan nan nan nan nan nan nan nan nan nan nan nan nan nan nan nan
289 271 264 255 254 253 253 255 256 262 264 265 270 275 281 286 292 288 289 290 283 280 277 274 nan nan nan nan nan nan nan nan nan nan nan nan nan nan nan nan nan nan nan
288 272 262 265 253 252 252 253 252 255 255 265 265 273 277 282 288 284 285 285 282 277 274 nan nan nan nan nan nan nan nan nan nan nan nan nan nan nan nan nan nan nan nan
291 274 272 267 257 248 247 250 252 250 251 257 262 267 274 283 286 283 281 274 277 279 nan nan nan nan nan nan nan nan nan nan nan nan nan nan nan nan nan nan nan nan nan
281 286 280 268 252 248 243 244 248 247 250 251 257 267 273 277 278 278 276 279 274 269 273 nan nan nan nan nan nan nan nan nan nan nan nan nan nan nan nan nan nan nan nan
280 281 280 264 258 249 244 239 241 242 249 247 251 263 272 273 273 276 275 273 nan nan nan nan nan nan nan nan nan nan nan nan nan nan nan nan nan nan nan nan nan nan nan
274 279 276 265 253 247 241 237 236 236 241 244 247 254 266 269 270 269 271 nan nan 274 278 278 nan nan nan nan nan nan nan nan nan nan nan nan nan nan nan nan nan nan nan
268 271 275 261 245 236 233 237 236 237 232 238 243 252 256 260 264 nan nan nan nan 267 274 273 274 nan nan nan nan nan nan nan nan nan nan nan nan nan nan nan nan nan nan
257 264 271 275 262 244 236 232 231 237 234 229 242 249 249 nan nan nan nan nan 263 263 264 268 271 269 nan nan nan nan nan nan nan nan nan nan nan nan nan nan nan nan nan
260 262 264 266 263 253 233 236 227 228 235 231 236 244 240 nan nan nan nan nan nan nan nan nan nan nan nan nan nan nan nan nan nan nan nan nan nan nan nan nan nan nan nan
261 264 258 249 259 252 229 nan nan nan nan 231 233 236 239 nan nan nan nan nan nan nan nan nan nan nan nan nan nan nan nan nan nan nan nan nan nan nan nan nan nan nan nan
253 258 263 258 252 243 223 nan nan nan nan nan 232 237 235 nan nan nan nan nan nan nan nan nan nan nan nan nan nan nan nan nan nan nan nan nan nan nan nan nan nan nan nan
253 262 264 nan 263 nan nan nan nan nan nan nan 233 235 nan 237 nan nan nan nan nan nan nan nan nan nan nan nan nan nan nan nan nan nan nan nan nan nan nan nan nan nan nan
246 239 nan nan nan 260 nan nan nan nan nan nan 235 235 237 nan nan nan nan nan nan nan nan nan nan nan nan nan nan nan nan nan nan nan nan nan nan nan nan nan nan nan nan
nan 240 nan nan nan nan nan nan nan nan nan nan nan 238 235 nan nan nan nan nan nan nan nan nan nan nan nan nan nan nan nan nan nan nan nan nan nan nan nan nan nan nan nan
218 nan 253 255 nan nan nan nan nan nan 222 223 224 nan 236 236 nan nan nan nan nan nan nan nan nan nan nan nan nan nan nan nan nan nan nan nan nan nan nan nan nan 290 289
230 238 239 249 256 nan nan nan nan nan nan 218 nan nan 235 nan nan nan nan nan nan nan nan nan nan nan nan nan nan nan nan nan nan nan nan nan nan nan nan nan nan nan nan
234 237 229 235 249 nan nan nan nan nan 231 232 234 nan nan nan nan nan nan nan nan nan nan nan nan nan nan nan nan nan nan nan nan nan nan nan nan nan nan nan nan nan nan
231 237 241 240 245 239 nan nan nan nan nan nan 252 nan nan nan nan nan nan nan nan nan nan nan nan nan nan nan nan nan nan nan nan nan nan nan nan nan nan nan nan nan nan
236 229 235 236 222 225 246 nan nan nan nan nan 250 nan 287 246 243 238 242 241 244 246 249 252 nan nan nan nan nan nan nan nan nan nan nan nan nan nan nan nan nan nan nan
232 231 230 234 211 214 223 nan nan nan nan nan nan nan 282 272 247 245 238 242 245 244 245 247 251 257 256 254 nan nan nan nan nan nan nan nan nan nan nan nan nan nan nan
217 219 216 215 220 227 230 nan nan nan nan nan nan nan nan 248 232 243 240 246 257 249 251 250 248 249 251 261 261 274 nan nan nan nan nan nan nan nan nan nan nan nan nan
223 221 214 nan 221 215 213 232 nan nan nan nan nan nan nan nan 247 247 248 nan 233 251 260 258 261 266 251 260 262 nan nan nan nan nan nan nan nan nan nan nan nan nan nan
229 nan nan nan nan 218 201 nan nan nan nan nan nan nan nan nan nan nan nan 242 241 245 264 250 262 273 271 267 nan nan nan nan nan nan nan nan nan nan nan nan nan nan nan